Wind_Speed
14 14 14 13 13 13 14 14 14 14 13 12 11 10 9 8 6 6 6 7 7 6 6 6 6 6 6 6 6 6 5 5 5 5 6 6 6 6 6 6 6 5 5 5 5 4 5 5 5
14 14 14 14 13 13 15 15 15 14 13 12 12 12 10 9 8 8 8 7 8 7 7 7 7 7 7 7 7 7 6 6 6 6 6 5 5 6 6 6 6 5 5 4 4 4 3 4 4
15 15 14 14 14 14 16 15 15 14 13 13 13 12 11 11 10 8 8 8 8 8 8 8 9 9 9 8 8 8 8 7 7 7 6 6 6 6 6 6 6 6 6 5 5 4 4 3 3
15 15 14 14 14 14 15 15 15 14 14 14 13 12 11 10 9 8 8 9 9 10 9 9 9 10 10 9 8 8 8 8 8 8 7 7 7 7 7 7 7 7 6 6 6 5 5 4 4
15 15 14 13 14 15 15 15 15 15 15 14 14 13 11 10 9 8 9 10 11 11 11 10 10 10 11 10 9 9 8 8 9 8 8 8 8 8 8 9 9 8 8 7 7 6 6 6 5
15 14 13 13 14 15 15 15 15 15 15 15 14 13 11 10 9 9 9 10 11 12 12 12 12 12 11 11 10 10 9 9 9 9 9 9 8 9 9 10 10 10 9 9 9 8 8 7 7
15 13 12 13 14 15 15 15 15 15 15 15 14 13 11 10 9 10 11 12 13 13 13 13 13 13 13 12 12 11 11 10 10 10 10 10 10 10 10 10 11 12 12 11 11 10 10 9 9
14 13 12 12 13 15 15 15 15 15 15 14 13 13 12 12 11 11 12 13 14 14 14 13 13 14 14 14 13 12 12 12 11 11 11 11 10 11 11 11 11 12 13 13 13 12 12 11 11
14 12 12 13 13 15 15 15 15 15 14 13 13 14 13 12 12 12 13 14 14 15 14 14 14 14 14 15 15 14 13 13 13 13 12 12 12 12 12 12 12 12 14 15 15 15 14 14 13
13 12 13 14 14 15 16 15 15 14 13 13 13 13 13 13 12 12 13 14 14 14 15 15 16 15 15 15 16 15 14 14 14 14 13 13 13 13 13 13 13 13 13 14 15 15 16 15 16
13 12 13 14 15 15 15 14 14 13 13 13 12 12 12 12 12 13 13 13 15 15 15 16 16 15 16 16 15 16 15 15 14 14 13 13 14 14 15 14 14 14 14 13 15 15 16 16 17
13 13 13 14 15 15 14 14 13 12 12 12 12 11 11 11 12 12 12 13 14 14 15 16 16 16 16 16 16 16 16 15 15 15 14 14 14 15 15 14 13 13 14 14 15 16 16 16 17
14 14 14 15 15 14 13 13 13 12 11 11 10 9 9 10 10 10 11 13 13 13 14 15 16 16 16 16 16 16 16 16 15 15 15 16 15 14 14 13 13 14 15 15 15 16 16 16 17
14 14 14 14 14 13 13 12 12 10 9 8 7 6 6 7 7 7 9 12 13 14 14 14 14 15 16 16 16 15 15 16 15 13 13 14 14 14 14 13 13 14 15 15 16 16 17 18 18
14 14 14 14 13 12 13 11 11 8 7 7 6 5 5 5 6 6 8 10 11 13 13 13 14 14 15 15 15 14 14 14 13 12 12 13 14 14 14 13 13 13 15 15 16 17 17 18 18
14 13 14 14 12 12 12 11 10 7 6 6 4 4 4 4 4 4 6 8 9 10 11 12 12 12 13 14 14 13 13 13 13 13 12 13 13 13 13 13 13 14 15 16 16 17 17 18 18
14 13 12 13 12 11 10 9 9 6 5 5 3 3 3 3 2 2 4 6 8 8 8 9 10 11 11 11 12 11 11 11 11 11 11 12 12 13 13 14 14 14 15 16 16 17 17 18 18
12 11 11 12 12 10 9 8 8 6 6 5 4 3 3 3 2 2 2 4 5 6 7 8 9 9 10 10 10 10 10 10 10 10 10 11 12 12 13 14 14 15 15 16 16 17 18 18 18
11 11 10 11 11 9 8 7 7 6 5 5 5 4 3 3 2 2 0 2 3 4 6 7 7 8 8 9 9 10 9 9 9 8 9 10 11 12 12 13 13 14 15 16 17 17 17 17 18
11 10 10 10 9 8 7 6 6 6 5 5 5 4 3 2 1 1 0 1 2 2 3 4 5 6 7 7 7 7 7 7 7 8 8 9 10 11 11 12 13 13 14 14 15 16 16 17 18
10 9 8 8 7 7 6 6 6 6 6 6 5 4 3 2 2 2 2 2 1 2 2 3 3 3 4 5 5 5 5 5 6 6 6 8 9 9 10 11 12 13 13 13 14 15 15 16 17
10 9 8 7 6 6 6 6 7 6 5 5 4 3 2 2 1 2 2 2 2 2 2 2 2 1 2 3 3 3 4 4 4 5 6 7 7 8 9 10 11 12 12 13 13 14 15 16 17
9 9 7 6 6 6 7 6 6 6 5 3 3 2 2 1 1 2 2 2 2 2 2 2 2 1 1 1 1 2 3 3 4 4 5 6 6 7 7 8 9 11 11 12 12 13 14 15 16
10 9 7 6 6 6 7 7 6 5 4 4 3 2 1 1 1 1 1 2 2 3 3 2 1 1 1 1 0 0 1 2 3 4 4 4 5 6 7 8 8 10 10 11 11 12 13 14 15
11 8 6 6 6 7 8 7 5 4 4 3 2 2 1 1 0 0 1 1 2 3 2 2 1 1 1 1 1 1 1 2 2 3 3 4 5 6 6 7 8 8 9 9 10 11 12 14 15
11 9 7 6 6 8 8 6 6 5 5 4 3 2 2 1 1 1 0 1 2 2 2 2 1 1 1 1 1 1 1 2 2 2 3 4 5 6 7 8 8 8 9 9 10 11 12 13 14
11 10 9 8 7 6 6 6 6 6 5 4 3 2 2 2 2 2 1 1 1 1 1 1 1 0 0 1 1 1 2 2 2 3 4 4 6 7 7 8 8 9 10 11 12 12 13 13 14
13 11 10 8 7 5 6 6 6 6 5 4 3 3 3 3 2 3 3 2 2 1 1 1 1 1 1 1 1 2 2 2 3 4 4 5 6 7 8 9 9 10 10 11 12 12 13 13 14
14 12 11 10 9 7 7 7 8 7 6 5 5 4 4 4 4 4 4 4 3 3 2 2 2 2 2 2 2 2 2 3 4 4 5 6 7 8 9 10 11 11 12 13 13 13 13 14 15
16 14 13 12 11 9 7 8 9 8 8 7 6 6 5 5 5 5 5 5 5 5 4 4 4 4 4 4 3 3 3 4 5 5 6 7 8 9 10 11 12 12 13 14 15 15 15 15 16
Wind_Direction
334 332 329 327 326 324 319 322 325 325 325 325 326 323 316 298 278 260 252 239 229 226 220 215 215 221 225 220 213 205 196 184 177 169 163 160 154 148 143 137 132 127 125 124 124 120 113 108 105
331 329 326 324 324 318 315 319 319 318 320 322 320 317 312 297 278 258 254 244 232 231 230 225 220 224 223 218 217 213 206 200 194 189 184 180 176 171 164 159 155 152 150 150 148 146 139 130 125
328 326 325 323 320 312 311 314 314 313 316 317 317 312 305 297 280 267 252 248 240 235 237 230 224 227 226 222 219 218 212 210 208 205 202 200 197 193 189 187 182 177 177 176 174 174 171 166 161
326 325 324 323 317 313 309 311 313 310 312 312 313 309 302 297 282 268 255 243 241 236 235 232 227 229 228 225 220 219 218 218 217 216 214 215 214 210 208 207 204 199 198 195 193 193 194 192 187
326 326 325 322 315 311 309 307 309 308 310 310 308 305 298 291 283 272 257 245 242 237 236 232 233 230 228 224 222 221 222 223 223 221 220 222 224 222 219 221 218 214 214 210 206 205 206 204 202
325 326 324 315 313 309 306 305 306 305 305 306 305 304 295 286 280 268 258 252 246 240 238 238 233 228 223 220 223 224 224 227 226 227 226 228 232 232 230 229 226 222 219 218 216 213 214 212 212
323 323 320 316 312 308 306 305 304 303 301 299 298 298 294 286 276 265 264 254 248 244 241 240 233 227 220 221 225 226 227 230 232 230 230 234 237 237 237 237 234 230 227 224 223 221 221 222 221
324 323 320 316 310 306 306 303 302 302 300 296 295 294 287 281 269 262 259 251 243 240 237 233 229 227 224 225 227 229 229 231 235 233 233 238 241 241 239 239 239 235 232 229 227 225 225 227 227
326 324 316 313 308 304 305 305 304 301 297 293 293 290 283 277 268 262 254 246 238 238 240 232 229 228 225 225 226 227 229 231 235 237 242 245 246 246 245 246 243 239 236 234 233 231 229 230 230
327 321 314 312 308 306 306 305 304 300 294 292 290 288 283 279 273 261 251 243 237 238 235 231 230 231 228 226 226 227 229 232 236 240 246 251 252 253 252 253 246 239 238 239 236 237 236 232 232
325 320 315 313 311 310 309 308 307 301 293 288 289 289 282 276 271 262 253 242 232 232 232 232 235 234 233 229 228 228 232 237 241 245 249 253 255 256 254 251 249 244 243 244 241 239 240 236 235
323 319 317 318 316 314 312 310 308 303 295 290 289 287 280 276 269 261 249 240 233 232 234 234 236 240 234 232 232 231 235 242 246 250 252 255 256 259 256 253 252 251 250 250 249 243 245 239 237
322 320 319 320 320 316 313 312 309 307 298 297 288 282 273 268 270 259 246 236 229 232 234 233 237 238 235 236 236 232 238 242 246 251 255 258 258 260 257 254 254 253 254 253 253 248 249 243 241
322 323 322 323 324 321 318 315 314 313 310 305 295 284 268 269 268 258 246 237 232 234 234 237 237 236 237 239 238 236 238 242 245 249 253 257 257 257 258 258 257 257 256 257 254 254 252 248 245
321 323 321 323 324 323 322 317 315 316 321 313 306 301 282 276 278 267 250 241 234 230 232 235 238 240 239 238 236 237 242 245 244 248 254 256 256 257 258 259 258 260 260 258 257 255 254 253 252
322 323 322 322 323 324 326 321 319 324 328 319 318 310 296 297 292 264 238 232 232 230 231 233 235 240 239 236 236 241 246 249 249 249 252 257 259 261 263 261 260 263 263 262 260 259 259 258 256
324 320 315 317 319 320 324 319 325 333 338 328 328 320 309 313 313 287 236 223 221 225 227 227 231 236 238 235 238 243 248 253 252 252 256 260 261 264 266 264 261 263 265 263 261 260 260 259 256
306 311 310 314 317 317 320 320 328 328 335 331 329 326 316 319 320 283 221 201 213 224 230 230 238 236 238 238 240 244 248 252 252 256 261 262 264 266 269 268 267 267 266 265 263 262 262 260 257
299 306 308 311 316 316 315 316 319 320 327 330 326 321 319 322 336 328 268 181 207 226 231 233 237 236 237 239 238 241 247 252 253 257 263 265 268 271 271 269 269 270 270 267 265 265 262 259 259
299 305 308 307 312 313 308 307 310 315 319 320 319 314 318 322 357 30 119 190 220 222 219 226 234 233 234 235 238 243 249 256 258 264 267 271 274 274 273 273 271 271 271 270 268 265 262 260 259
296 300 303 306 311 313 312 312 310 314 314 314 316 320 344 14 50 64 61 70 92 139 176 211 229 232 232 227 231 234 252 260 264 270 272 277 277 277 277 276 276 275 273 273 273 269 267 265 264
287 291 293 303 311 312 315 317 313 320 313 315 323 333 352 11 61 73 72 74 86 113 139 170 178 200 207 214 228 242 260 271 277 282 284 282 282 284 283 280 279 278 278 277 277 274 271 269 267
274 280 282 290 302 302 307 310 312 313 303 300 310 321 345 15 56 74 76 79 96 112 124 136 147 144 156 195 226 255 270 281 289 292 291 291 291 294 294 289 287 285 284 282 281 277 275 273 271
266 272 279 288 297 301 300 300 299 302 291 285 292 298 317 1 52 86 81 89 104 116 125 124 121 114 102 103 91 338 309 305 301 301 303 305 308 311 310 304 297 293 292 291 288 285 282 280 277
257 261 285 301 303 292 292 290 284 288 291 291 286 278 286 290 235 93 65 95 108 113 118 115 112 109 94 89 76 21 338 329 321 316 317 318 321 323 322 319 314 308 303 299 296 294 290 286 282
249 246 246 261 280 287 293 283 273 276 287 285 281 267 261 258 230 207 150 132 127 124 122 115 119 116 95 76 36 360 344 345 347 343 335 332 331 330 331 330 326 320 316 311 308 305 301 295 289
243 244 248 256 269 281 288 282 277 275 277 273 273 259 250 251 242 235 232 177 153 141 121 101 107 123 52 28 10 358 347 350 358 350 341 338 337 337 337 336 332 329 324 319 315 311 307 302 296
243 246 248 248 251 267 286 295 283 273 268 267 272 269 258 261 257 256 248 226 226 234 247 261 283 294 310 325 337 343 345 347 347 345 344 341 341 342 341 338 335 332 330 326 321 317 314 309 304
243 242 244 249 248 249 270 277 270 264 259 264 267 264 258 258 266 267 255 244 243 248 257 268 278 287 290 297 302 313 324 331 337 341 341 340 339 338 338 335 332 330 329 327 323 320 316 312 309
240 241 245 250 255 250 255 270 267 261 261 265 265 260 255 256 266 267 257 253 253 257 261 267 273 280 285 289 294 302 308 316 323 330 333 333 333 333 334 333 332 329 327 325 322 319 318 315 313
Height
5912 5911 5910 5909 5910 5909 5908 5907 5905 5904 5903 5902 5901 5900 5899 5899 5899 5901 5898 5896 5897 5897 5897 5897 5898 5898 5899 5899 5899 5899 5900 5900 5900 5900 5900 5900 5901 5901 5901 5902 5902 5902 5903 5903 5903 5904 5904 5904 5904
5910 5909 5908 5908 5908 5907 5906 5904 5903 5901 5901 5899 5898 5897 5896 5895 5895 5895 5894 5894 5895 5895 5895 5895 5896 5897 5897 5898 5898 5898 5898 5899 5899 5899 5900 5900 5900 5901 5901 5901 5902 5902 5903 5903 5903 5904 5904 5904 5904
5908 5906 5906 5906 5905 5905 5903 5901 5900 5898 5897 5897 5896 5894 5894 5893 5892 5892 5892 5892 5892 5893 5893 5893 5894 5895 5895 5896 5897 5897 5897 5898 5898 5898 5899 5899 5900 5900 5900 5901 5901 5901 5902 5903 5903 5903 5904 5904 5904
5905 5905 5904 5904 5903 5901 5900 5898 5897 5896 5895 5894 5893 5892 5891 5890 5889 5889 5889 5889 5890 5890 5891 5891 5892 5893 5893 5894 5894 5895 5896 5896 5897 5897 5897 5898 5898 5899 5899 5900 5900 5901 5901 5902 5902 5903 5903 5904 5904
5903 5902 5902 5901 5900 5898 5896 5895 5894 5893 5892 5891 5890 5889 5888 5887 5887 5886 5886 5886 5887 5888 5888 5889 5890 5890 5891 5892 5893 5893 5894 5894 5895 5895 5896 5896 5897 5898 5898 5899 5899 5900 5900 5901 5901 5902 5902 5903 5903
5901 5900 5900 5899 5897 5895 5893 5892 5891 5890 5889 5888 5887 5886 5885 5884 5884 5884 5884 5884 5884 5885 5886 5886 5887 5888 5888 5889 5890 5891 5892 5892 5893 5893 5894 5895 5895 5896 5896 5897 5897 5898 5899 5900 5900 5901 5901 5902 5903
5899 5898 5897 5896 5894 5892 5890 5889 5888 5887 5885 5885 5884 5883 5882 5881 5881 5881 5881 5881 5881 5882 5882 5884 5884 5885 5886 5887 5888 5889 5890 5890 5891 5891 5892 5893 5893 5894 5894 5895 5895 5896 5897 5898 5898 5899 5900 5901 5901
5896 5896 5894 5893 5891 5889 5887 5885 5884 5883 5882 5881 5880 5879 5879 5878 5878 5878 5878 5878 5878 5878 5879 5880 5881 5882 5883 5884 5885 5886 5887 5888 5889 5889 5890 5890 5891 5891 5892 5892 5893 5894 5894 5895 5896 5897 5898 5899 5900
5893 5894 5892 5890 5888 5886 5884 5882 5881 5880 5878 5878 5877 5876 5875 5874 5874 5874 5874 5874 5874 5875 5876 5877 5878 5879 5880 5881 5882 5883 5884 5885 5886 5887 5887 5888 5888 5889 5889 5889 5890 5891 5892 5892 5893 5894 5895 5896 5897
5891 5891 5889 5887 5885 5883 5881 5879 5877 5876 5875 5874 5873 5872 5871 5871 5870 5870 5870 5870 5870 5871 5872 5874 5875 5876 5877 5878 5879 5880 5881 5882 5883 5884 5885 5885 5885 5885 5886 5886 5887 5888 5888 5889 5890 5891 5892 5893 5894
5889 5888 5886 5884 5882 5880 5878 5876 5874 5873 5872 5870 5870 5869 5868 5867 5866 5866 5866 5866 5867 5868 5869 5871 5872 5873 5874 5875 5876 5877 5878 5880 5880 5881 5882 5882 5882 5882 5883 5883 5883 5884 5885 5886 5887 5888 5889 5890 5891
5887 5885 5883 5881 5879 5877 5875 5873 5871 5870 5869 5867 5866 5865 5864 5863 5863 5862 5862 5863 5864 5865 5867 5868 5869 5870 5871 5872 5873 5874 5875 5876 5878 5878 5879 5879 5879 5879 5879 5879 5880 5881 5882 5882 5883 5884 5885 5886 5887
5885 5883 5880 5878 5876 5874 5872 5870 5868 5866 5864 5863 5862 5861 5861 5860 5859 5859 5859 5859 5860 5862 5864 5865 5866 5867 5868 5869 5870 5871 5872 5873 5875 5875 5875 5875 5875 5876 5876 5876 5877 5877 5878 5879 5879 5880 5881 5882 5883
5882 5880 5878 5876 5873 5871 5869 5867 5865 5863 5862 5860 5859 5858 5858 5857 5857 5856 5857 5857 5858 5859 5861 5862 5863 5864 5865 5866 5867 5868 5869 5870 5871 5872 5872 5872 5873 5873 5873 5873 5873 5874 5875 5875 5876 5877 5878 5878 5879
5879 5878 5875 5873 5871 5869 5867 5865 5863 5861 5860 5858 5857 5856 5856 5855 5855 5855 5855 5855 5856 5857 5858 5860 5861 5862 5863 5864 5865 5865 5866 5867 5868 5869 5869 5869 5870 5870 5870 5870 5871 5871 5871 5872 5872 5873 5873 5874 5875
5877 5876 5874 5872 5869 5867 5867 5864 5862 5860 5859 5857 5856 5855 5854 5854 5853 5853 5853 5853 5854 5855 5856 5857 5858 5859 5860 5861 5862 5863 5864 5864 5865 5866 5866 5866 5867 5867 5867 5867 5868 5868 5868 5868 5868 5869 5870 5870 5871
5876 5874 5873 5870 5868 5866 5865 5863 5861 5859 5858 5857 5856 5855 5854 5853 5853 5852 5852 5852 5853 5854 5854 5855 5856 5857 5858 5859 5860 5861 5861 5862 5863 5863 5863 5864 5864 5864 5864 5864 5864 5864 5864 5865 5865 5865 5866 5866 5867
5875 5873 5871 5869 5866 5865 5863 5862 5860 5859 5858 5857 5856 5855 5854 5853 5852 5851 5851 5851 5852 5852 5853 5854 5854 5855 5856 5857 5858 5859 5859 5860 5860 5861 5861 5861 5861 5861 5860 5860 5860 5860 5861 5861 5861 5862 5862 5862 5863
5872 5870 5869 5867 5865 5864 5862 5861 5860 5858 5857 5856 5856 5855 5854 5853 5852 5851 5851 5851 5851 5852 5852 5853 5853 5854 5855 5856 5856 5857 5858 5858 5858 5858 5858 5858 5858 5857 5857 5858 5857 5857 5857 5857 5857 5857 5858 5858 5858
5869 5868 5867 5865 5864 5863 5861 5861 5859 5858 5857 5856 5855 5854 5854 5853 5852 5852 5851 5851 5851 5851 5851 5851 5852 5853 5853 5854 5855 5855 5856 5856 5856 5856 5855 5855 5855 5855 5854 5854 5854 5854 5853 5853 5853 5853 5853 5853 5854
5867 5866 5865 5864 5863 5862 5861 5860 5859 5858 5856 5855 5855 5854 5854 5853 5852 5852 5851 5851 5851 5851 5851 5852 5852 5852 5852 5852 5853 5853 5854 5854 5854 5854 5853 5853 5853 5852 5852 5851 5851 5850 5850 5850 5849 5849 5849 5849 5849
5865 5864 5863 5863 5862 5862 5861 5860 5859 5857 5856 5855 5854 5854 5854 5853 5853 5852 5852 5851 5851 5851 5851 5852 5852 5852 5851 5852 5852 5852 5852 5852 5852 5852 5852 5851 5851 5850 5849 5848 5848 5847 5846 5846 5846 5845 5845 5845 5845
5863 5862 5862 5861 5861 5861 5860 5859 5859 5856 5855 5855 5854 5854 5854 5853 5853 5852 5852 5852 5851 5851 5851 5852 5852 5851 5851 5851 5851 5851 5851 5851 5850 5850 5850 5849 5849 5848 5847 5846 5845 5844 5843 5842 5842 5841 5841 5840 5840
5860 5861 5860 5860 5860 5861 5859 5858 5858 5855 5855 5854 5854 5853 5853 5853 5853 5853 5852 5852 5852 5852 5852 5852 5852 5851 5851 5851 5851 5850 5850 5850 5849 5849 5848 5848 5847 5846 5845 5844 5842 5841 5840 5839 5838 5837 5837 5836 5835
5858 5859 5861 5860 5860 5860 5857 5856 5856 5854 5854 5853 5853 5853 5853 5853 5852 5852 5852 5852 5852 5852 5852 5852 5852 5851 5851 5851 5850 5850 5849 5849 5848 5848 5847 5846 5845 5844 5843 5841 5840 5839 5837 5836 5835 5834 5833 5832 5831
5855 5857 5859 5860 5860 5859 5856 5855 5855 5853 5852 5852 5852 5852 5852 5852 5852 5852 5852 5852 5852 5852 5852 5852 5851 5851 5851 5850 5850 5849 5849 5848 5847 5846 5845 5844 5843 5842 5841 5839 5838 5836 5835 5833 5832 5831 5829 5828 5827
5853 5854 5855 5856 5856 5856 5855 5854 5853 5852 5851 5851 5851 5851 5851 5852 5852 5852 5852 5851 5851 5852 5852 5851 5851 5851 5850 5850 5849 5849 5848 5847 5846 5845 5844 5843 5842 5840 5839 5837 5836 5834 5832 5831 5829 5827 5825 5824 5822
5850 5851 5852 5853 5854 5856 5855 5853 5853 5851 5850 5850 5850 5850 5850 5851 5851 5851 5851 5851 5851 5851 5851 5851 5851 5850 5850 5849 5849 5848 5847 5846 5845 5844 5843 5841 5840 5839 5837 5836 5834 5832 5830 5828 5826 5824 5822 5820 5818
5847 5848 5849 5851 5851 5853 5854 5855 5850 5849 5849 5849 5849 5849 5849 5849 5850 5850 5850 5850 5850 5850 5850 5850 5850 5849 5849 5848 5848 5847 5846 5845 5844 5843 5841 5840 5838 5837 5835 5833 5831 5829 5827 5825 5823 5820 5818 5816 5814
5843 5844 5846 5848 5848 5849 5850 5853 5848 5848 5847 5847 5847 5848 5848 5848 5848 5848 5849 5849 5849 5849 5849 5849 5849 5848 5848 5847 5846 5845 5845 5844 5843 5841 5840 5839 5837 5835 5833 5831 5829 5827 5824 5822 5819 5817 5815 5812 5810